Change the Weather History Date:

Friday, May 3, 2013

  Actual Average Record
Temperature  
Mean Temperature 37 °F -  
Max Temperature 41 °F 69 °F 84 °F (1980)
Min Temperature 33 °F 45 °F 31 °F (1976)
Degree Days  
Heating Degree Days 28    
Moisture  
Dew Point 35 °F    
Average Humidity 91    
Maximum Humidity 100    
Minimum Humidity 87    
Precipitation  
Precipitation 0.87 in - - ()
Sea Level Pressure  
Sea Level Pressure 30.03 in    
Wind  
Wind Speed 17 mph (North)    
Max Wind Speed 23 mph    
Max Gust Speed 29 mph    
Visibility 4 miles    
Events Rain    
Averages and records for this station are not official NWS values.
T = Trace of Precipitation, MM = Missing Value Source: NWS Daily Summary

Daily Weather History Graph

Daily Weather History Graph

Search for Another Location

Airport or City:

Trip Planner

Search our weather history database for the weather conditions in past years. The results will help you decide how hot, cold, wet, or windy it might be!

Date:

Astronomy

May. 03, 2013 Rise Set
Actual Time 6:02 AM CDT 8:07 PM CDT
Civil Twilight 5:32 AM CDT 8:37 PM CDT
Nautical Twilight 4:56 AM CDT 9:14 PM CDT
Astronomical Twilight 4:15 AM CDT 9:54 PM CDT
Moon 2:30 AM CDT (5/3) 1:59 PM CDT (5/3)
Length of Visible Light 15h 04m
Length of Day
14h 04m
Last Quarter, 37% of the Moon is Illuminated
May 3
Last Quarter
May 9
New
May 17
First Quarter
May 24
Full
May 31
Last Quarter

Hourly Weather History & Observations

Time (CDT) Temp. Windchill Dew Point Humidity Pressure Visibility Wind Dir Wind Speed Gust Speed Precip Events Conditions
12:15 AM 35.6 °F 25.2 °F 32.0 °F 87% 30.23 in 6.0 mi North 18.4 mph 28.8 mph N/A Rain Light Rain
12:35 AM 35.6 °F 25.9 °F 32.0 °F 87% 30.22 in 3.0 mi North 16.1 mph 24.2 mph N/A   Overcast
12:55 AM 35.6 °F 25.5 °F 32.0 °F 87% 30.21 in 2.5 mi North 17.3 mph - 0.03 in Rain Rain
1:15 AM 35.6 °F 24.8 °F 32.0 °F 87% 30.20 in 3.0 mi North 19.6 mph - N/A   Overcast
1:35 AM 33.8 °F 23.2 °F 32.0 °F 93% 30.19 in 3.0 mi North 17.3 mph 24.2 mph N/A   Overcast
1:55 AM 33.8 °F 22.5 °F 32.0 °F 93% 30.17 in 4.0 mi North 19.6 mph - 0.02 in   Overcast
2:15 AM 33.8 °F 22.2 °F 32.0 °F 93% 30.16 in 3.0 mi North 20.7 mph - N/A   Overcast
2:35 AM 33.8 °F 21.6 °F 32.0 °F 93% 30.15 in 3.0 mi North 23.0 mph 28.8 mph N/A   Overcast
2:55 AM 33.8 °F 22.8 °F 32.0 °F 93% 30.14 in 3.0 mi North 18.4 mph 26.5 mph 0.02 in   Overcast
3:15 AM 33.8 °F 21.6 °F 32.0 °F 93% 30.12 in 2.5 mi North 23.0 mph - N/A Rain Light Rain
3:35 AM 33.8 °F 23.5 °F 32.0 °F 93% 30.14 in 3.0 mi North 16.1 mph 23.0 mph N/A   Light Drizzle
3:55 AM 33.8 °F 23.2 °F 32.0 °F 93% 30.14 in 7.0 mi North 17.3 mph - 0.01 in   Light Drizzle
4:15 AM 33.8 °F 23.2 °F 32.0 °F 93% 30.13 in 9.0 mi North 17.3 mph - N/A   Light Drizzle
4:35 AM 33.8 °F 23.5 °F 32.0 °F 93% 30.13 in 1.8 mi North 16.1 mph - N/A   Overcast
4:55 AM 33.8 °F 23.9 °F 32.0 °F 93% 30.13 in 1.8 mi North 15.0 mph 21.9 mph 0.01 in   Overcast
5:15 AM 33.8 °F 24.3 °F 32.0 °F 93% 30.13 in 2.0 mi NNW 13.8 mph 19.6 mph N/A   Overcast
5:35 AM 33.8 °F 24.3 °F 32.0 °F 93% 30.12 in 1.5 mi North 13.8 mph - N/A   Overcast
5:55 AM 33.8 °F 25.3 °F 32.0 °F 93% 30.14 in 2.0 mi NNW 11.5 mph 18.4 mph 0.02 in Rain Rain
6:15 AM 33.8 °F 23.2 °F 32.0 °F 93% 30.12 in 2.5 mi North 17.3 mph - N/A Rain Heavy Rain
6:35 AM 33.8 °F 23.2 °F 32.0 °F 93% 30.12 in 2.0 mi North 17.3 mph - N/A Rain Heavy Rain
6:55 AM 33.8 °F 22.8 °F 32.0 °F 93% 30.10 in 3.0 mi North 18.4 mph - 0.07 in Rain Rain
7:15 AM 33.8 °F 23.2 °F 32.0 °F 93% 30.10 in 4.0 mi North 17.3 mph 23.0 mph N/A Rain Rain
7:35 AM 33.8 °F 23.5 °F 32.0 °F 93% 30.10 in 2.0 mi North 16.1 mph 24.2 mph N/A Rain Rain
7:55 AM 33.8 °F 23.2 °F 32.0 °F 93% 30.09 in 2.5 mi North 17.3 mph - 0.05 in Rain Heavy Rain
8:15 AM 33.8 °F 23.2 °F 32.0 °F 93% 30.09 in 2.0 mi NNE 17.3 mph - N/A Rain Rain
8:35 AM 35.6 °F 25.9 °F 32.0 °F 87% 30.08 in 3.0 mi North 16.1 mph - N/A Rain Rain
8:55 AM 35.6 °F 26.2 °F 32.0 °F 87% 30.08 in 2.5 mi North 15.0 mph - 0.07 in Rain Rain
9:15 AM 35.6 °F 26.6 °F 32.0 °F 87% 30.07 in 3.0 mi North 13.8 mph - N/A Rain Rain
9:35 AM 35.6 °F 26.2 °F 32.0 °F 87% 30.07 in 5.0 mi North 15.0 mph - N/A Rain Light Rain
9:55 AM 35.6 °F 26.6 °F 33.8 °F 93% 30.07 in 5.0 mi North 13.8 mph - 0.02 in Rain Light Rain
10:15 AM 35.6 °F 26.2 °F 32.0 °F 87% 30.07 in 3.0 mi North 15.0 mph - N/A Rain Rain
10:35 AM 35.6 °F 27.1 °F 33.8 °F 93% 30.06 in 4.0 mi North 12.7 mph - N/A Rain Rain
10:55 AM 37.4 °F 28.9 °F 33.8 °F 87% 30.06 in 9.0 mi North 13.8 mph - 0.03 in   Light Drizzle
11:15 AM 35.6 °F 25.9 °F 33.8 °F 93% 30.05 in 7.0 mi North 16.1 mph - N/A Rain Light Rain
11:35 AM 37.4 °F 28.9 °F 33.8 °F 87% 30.05 in 3.0 mi North 13.8 mph - N/A Rain Rain
11:55 AM 37.4 °F 29.3 °F 33.8 °F 87% 30.05 in 3.0 mi North 12.7 mph - 0.03 in Rain Rain
12:15 PM 37.4 °F 28.9 °F 33.8 °F 87% 30.03 in 4.0 mi North 13.8 mph - N/A Rain Rain
12:35 PM 37.4 °F 28.9 °F 33.8 °F 87% 30.03 in 3.0 mi North 13.8 mph - N/A Rain Rain
12:55 PM 37.4 °F 27.8 °F 33.8 °F 87% 30.01 in 3.0 mi North 17.3 mph - 0.03 in Rain Rain
1:15 PM 37.4 °F 29.8 °F 33.8 °F 87% 30.02 in 3.0 mi North 11.5 mph - N/A Rain Rain
1:35 PM 37.4 °F 29.3 °F 35.6 °F 93% 30.01 in 4.0 mi North 12.7 mph - N/A Rain Rain
1:55 PM 37.4 °F 28.5 °F 35.6 °F 93% 30.01 in 5.0 mi North 15.0 mph - 0.03 in Rain Rain
2:15 PM 37.4 °F 28.5 °F 35.6 °F 93% 30.00 in 4.0 mi North 15.0 mph - N/A Rain Rain
2:35 PM 37.4 °F 28.5 °F 35.6 °F 93% 29.99 in 4.0 mi North 15.0 mph - N/A Rain Rain
2:55 PM 39.2 °F 30.8 °F 35.6 °F 87% 29.98 in 4.0 mi North 15.0 mph - 0.03 in Rain Rain
3:15 PM 39.2 °F 30.8 °F 35.6 °F 87% 29.98 in 4.0 mi North 15.0 mph - N/A Rain Light Rain
3:35 PM 39.2 °F 30.2 °F 35.6 °F 87% 29.95 in 8.0 mi North 17.3 mph - N/A Rain Light Rain
3:55 PM 39.2 °F 30.8 °F 35.6 °F 87% 29.95 in 5.0 mi North 15.0 mph 20.7 mph 0.01 in Rain Light Rain
4:15 PM 39.2 °F 31.2 °F 35.6 °F 87% 29.97 in 5.0 mi North 13.8 mph - N/A Rain Light Rain
4:35 PM 39.2 °F 31.2 °F 35.6 °F 87% 29.96 in 5.0 mi North 13.8 mph - N/A Rain Light Rain
4:55 PM 39.2 °F 31.2 °F 37.4 °F 93% 29.95 in 4.0 mi North 13.8 mph - 0.02 in Rain Light Rain
5:15 PM 39.2 °F 31.2 °F 37.4 °F 93% 29.95 in 4.0 mi North 13.8 mph - N/A Rain Rain
5:35 PM 39.2 °F 31.2 °F 37.4 °F 93% 29.94 in 6.0 mi North 13.8 mph - N/A Rain Light Rain
5:55 PM 39.2 °F 30.8 °F 35.6 °F 87% 29.95 in 4.0 mi North 15.0 mph - 0.02 in Rain Rain
6:15 PM 39.2 °F 30.8 °F 37.4 °F 93% 29.95 in 4.0 mi North 15.0 mph - N/A Rain Rain
6:35 PM 39.2 °F 31.2 °F 37.4 °F 93% 29.95 in 4.0 mi NNW 13.8 mph - N/A Rain Rain
6:55 PM 39.2 °F 30.5 °F 37.4 °F 93% 29.94 in 4.0 mi North 16.1 mph - 0.05 in Rain Rain
7:15 PM 39.2 °F 30.5 °F 37.4 °F 93% 29.94 in 4.0 mi NNW 16.1 mph - N/A Rain Rain
7:35 PM 39.2 °F 30.8 °F 37.4 °F 93% 29.94 in 5.0 mi NNW 15.0 mph - N/A Rain Light Rain
7:55 PM 39.2 °F 31.2 °F 37.4 °F 93% 29.94 in 4.0 mi NNW 13.8 mph - 0.04 in Rain Rain
8:15 PM 39.2 °F 30.5 °F 37.4 °F 93% 29.92 in 4.0 mi NNW 16.1 mph - N/A Rain Rain
8:35 PM 39.2 °F 30.2 °F 37.4 °F 93% 29.91 in 5.0 mi North 17.3 mph - N/A Rain Light Rain
8:55 PM 39.2 °F 30.2 °F 37.4 °F 93% 29.91 in 6.0 mi North 17.3 mph - 0.04 in Rain Light Rain
9:15 PM 39.2 °F 30.2 °F 37.4 °F 93% 29.91 in 5.0 mi North 17.3 mph - N/A Rain Light Rain
9:35 PM 39.2 °F 30.2 °F 37.4 °F 93% 29.90 in 4.0 mi North 17.3 mph - N/A Rain Rain
9:55 PM 39.2 °F 30.5 °F 37.4 °F 93% 29.90 in 4.0 mi North 16.1 mph 24.2 mph 0.05 in Rain Rain
10:15 PM 41.0 °F 32.5 °F 39.2 °F 93% 29.89 in 3.0 mi North 17.3 mph 23.0 mph N/A Rain Rain
10:35 PM 41.0 °F 32.2 °F 39.2 °F 93% 29.89 in 4.0 mi North 18.4 mph - N/A Rain Rain
10:55 PM 41.0 °F 32.2 °F 39.2 °F 93% 29.86 in 6.0 mi North 18.4 mph - 0.07 in Rain Light Rain
11:15 PM 41.0 °F 32.5 °F 39.2 °F 93% 29.87 in 6.0 mi NNE 17.3 mph 24.2 mph N/A Rain Light Rain
11:35 PM 41.0 °F 35.8 °F 39.2 °F 93% 29.87 in 3.0 mi North 8.1 mph 16.1 mph N/A Rain Heavy Rain
11:55 PM 41.0 °F 34.7 °F 41.0 °F 100% 29.88 in 3.0 mi North 10.4 mph - 0.10 in Rain Heavy Rain